Overview Statistics Trail Chart Weather Telemetry Raw packets
 

This is the latest recevied weather packets stored in our database for station/object WX6HNX-6. If no packets are shown the sender has not sent any weather packets the latest 10 day(s).

<< 20 21 22 23 24 25 26 >>
Time Temp. Humidity Pressure Rain* Wind** Luminosity Snow
1777664370 28.33° C 33% 1012.8 hPa 0 mm - - -
1777664068 28.33° C 36% 1012.8 hPa 0 mm - - -
1777663769 28.33° C 36% 1013 hPa 0 mm - - -
1777663468 28.33° C 35% 1012.9 hPa 0 mm - - -
1777663169 28.33° C 37% 1013 hPa 0 mm - - -
1777662868 27.78° C 39% 1013.1 hPa 0 mm - - -
1777662569 27.78° C 37% 1013.2 hPa 0 mm - - -
1777662268 27.22° C 41% 1013.3 hPa 0 mm - - -
1777661969 26.67° C 40% 1013.4 hPa 0 mm - - -
1777661668 27.22° C 37% 1013.5 hPa 0 mm - - -
1777661369 27.22° C 38% 1013.5 hPa 0 mm - - -
1777661069 26.67° C 38% 1013.6 hPa 0 mm - - -
1777660768 26.67° C 39% 1013.7 hPa 0 mm - - -
1777660469 26.67° C 40% 1013.7 hPa 0 mm - - -
1777660168 26.67° C 42% 1013.7 hPa 0 mm - - -
1777659868 26.67° C 43% 1013.7 hPa 0 mm - - -
1777659568 26.11° C 43% 1013.7 hPa 0 mm - - -
1777659268 26.11° C 40% 1013.8 hPa 0 mm - - -
1777658968 26.11° C 42% 1013.8 hPa 0 mm - - -
1777658668 26.11° C 41% 1013.9 hPa 0 mm - - -
1777658370 26.11° C 43% 1014 hPa 0 mm - - -
1777658068 26.11° C 42% 1014 hPa 0 mm - - -
1777657768 25.56° C 43% 1014.1 hPa 0 mm - - -
1777657468 25.56° C 40% 1014.1 hPa 0 mm - - -
1777657168 25° C 42% 1014.1 hPa 0 mm - - -

* Rain latest hour (hover to see other rain measurements)
** Current wind speed in m/s (hover to see current wind gust speed)